DW0000 Weather Reports


time (UTC)temp
F
wind
direction
speed
knots
gust
knots
rain 1hr
in
rain 24hr
in
rain mn
in
humidity
%
barometer
mb
20260509033505 62 291 5.2 18.2 0.04 0.49 0.13 87 1003.6
20260509032507 63 308 17.4 20.0 0.00 0.46 0.10 84 1003.6
20260509031007 64 313 17.4 20.0 0.00 0.45 0.10 83 1003.6
20260509030005 65 309 10.4 15.6 0.00 0.45 0.10 83 1003.6
20260509025506 66 301 9.6 14.8 0.00 0.45 0.10 84 1003.5
20260509025007 65 306 10.4 17.4 0.00 0.45 0.10 84 1003.4
20260509024505 65 314 11.3 19.1 0.00 0.45 0.10 82 1003.6
20260509024005 65 318 14.8 21.7 0.00 0.45 0.10 82 1003.8
20260509023506 66 312 13.9 20.0 0.00 0.45 0.10 81 1003.8
20260509022505 66 309 12.2 20.0 0.00 0.45 0.10 83 1003.6
20260509015504 67 307 13.9 20.0 0.00 0.45 0.10 79 1003.7
20260509015006 67 305 13.0 19.1 0.00 0.45 0.10 80 1003.6
20260509014007 67 309 13.9 17.4 0.00 0.45 0.10 78 1003.7
20260509013006 67 311 14.8 19.1 0.00 0.45 0.10 79 1003.6
20260509012505 67 303 12.2 20.0 0.00 0.45 0.10 78 1003.6
20260509012005 67 303 12.2 20.0 0.00 0.45 0.10 77 1003.6
20260509011507 67 306 14.8 20.0 0.00 0.45 0.10 78 1003.9
20260509010006 67 308 10.4 19.1 0.00 0.45 0.10 79 1003.9
20260509005505 67 304 13.0 21.7 0.00 0.45 0.10 79 1003.8
20260509004505 67 306 14.8 20.9 0.00 0.45 0.10 83 1004.3
20260509003505 67 315 16.5 19.1 0.00 0.45 0.10 85 1004.5
20260509002506 67 317 18.2 32.2 0.00 0.45 0.10 83 1004.5
20260509002006 67 304 8.7 18.2 0.00 0.45 0.10 84 1004.6
20260509001005 66 297 8.7 17.4 0.00 0.45 0.10 86 1005.0
20260509000006 66 314 15.6 21.7 0.00 0.45 0.10 85 1005.1
20260508235506 66 318 14.8 20.9 0.00 0.45 0.10 88 1005.4
20260508233506 64 310 13.0 18.2 0.04 0.45 0.10 92 1005.6
20260508233005 63 309 11.3 15.6 0.04 0.45 0.10 92 1005.5
20260508232505 63 311 12.2 15.6 0.04 0.45 0.10 92 1005.6
20260508232007 62 315 12.2 15.6 0.04 0.45 0.10 91 1005.7
20260508230505 62 312 7.8 13.9 0.04 0.45 0.10 89 1005.8
20260508230007 64 269 10.4 20.9 0.04 0.45 0.10 88 1006.0
20260508225505 65 308 11.3 22.6 0.04 0.45 0.10 89 1006.0
20260508224505 65 306 11.3 17.4 0.01 0.43 0.07 88 1005.9
20260508222007 65 318 21.7 25.2 0.00 0.42 0.06 86 1005.9
20260508221005 65 306 14.8 20.9 0.00 0.42 0.06 87 1005.9
20260508215505 65 313 14.8 20.0 0.00 0.42 0.06 87 1006.2
20260508215005 64 310 15.6 19.1 0.00 0.42 0.06 87 1005.9
20260508214006 64 310 16.5 21.7 0.00 0.42 0.06 88 1005.9
20260508213504 64 309 14.8 20.0 0.00 0.42 0.06 89 1005.8
20260508201505 61 322 15.6 20.9 0.00 0.42 0.06 97 1005.7
20260508201006 61 316 12.2 15.6 0.00 0.42 0.06 97 1005.7
20260508200004 61 321 12.2 15.6 0.00 0.42 0.06 97 1005.6
20260508195506 61 311 13.9 17.4 0.00 0.42 0.06 97 1005.6
20260508195005 60 320 15.6 18.2 0.00 0.42 0.06 97 1005.5
20260508193004 60 315 13.9 19.1 0.00 0.42 0.06 97 1005.4
20260508192505 60 319 13.0 17.4 0.00 0.42 0.06 97 1005.5
20260508190504 59 319 14.8 19.1 0.00 0.42 0.06 97 1005.5
20260508185505 59 318 13.0 15.6 0.00 0.42 0.06 97 1005.2
20260508185004 59 314 13.0 18.2 0.04 0.42 0.06 96 1005.1
20260508183005 59 319 12.2 15.6 0.04 0.42 0.06 96 1005.3
20260508181504 60 318 12.2 17.4 0.04 0.42 0.06 96 1005.3
20260508181005 60 317 13.0 20.9 0.04 0.42 0.06 96 1005.4
20260508180506 60 320 13.9 20.0 0.04 0.42 0.06 95 1005.5
20260508180005 60 319 15.6 21.7 0.04 0.42 0.06 95 1005.4
20260508175504 61 302 11.3 22.6 0.04 0.41 0.06 96 1005.3
20260508174505 61 311 13.9 17.4 0.00 0.38 0.02 95 1005.4
20260508174004 61 315 13.9 19.1 0.00 0.38 0.02 95 1005.1
20260508173506 60 311 13.9 19.1 0.00 0.38 0.02 96 1005.1
20260508173005 61 313 14.8 21.7 0.00 0.38 0.02 96 1005.1
20260508172505 61 323 13.9 18.2 0.00 0.38 0.02 96 1005.1
20260508170504 61 314 13.9 19.1 0.00 0.38 0.02 96 1005.0
20260508170007 61 311 14.8 22.6 0.00 0.38 0.02 96 1005.2
20260508165507 61 320 15.6 22.6 0.00 0.38 0.02 96 1005.1
20260508163506 61 313 18.2 24.3 0.00 0.38 0.02 96 1004.9
20260508163007 61 318 17.4 25.2 0.00 0.38 0.02 96 1005.2
20260508162007 61 319 20.9 27.8 0.00 0.38 0.02 96 1005.0
20260508161007 61 320 20.9 26.9 0.00 0.38 0.02 97 1005.0
20260508160008 61 318 20.9 26.1 0.00 0.38 0.02 97 1005.0
20260508154507 61 323 17.4 25.2 0.00 0.38 0.02 97 1005.1
20260508153006 61 315 17.4 22.6 0.00 0.38 0.02 96 1005.2
20260508152508 61 321 14.8 20.9 0.00 0.38 0.02 96 1005.1
20260508151008 60 324 16.5 21.7 0.00 0.38 0.02 96 1005.5
20260508145507 60 322 17.4 20.9 0.00 0.38 0.02 96 1005.5
20260508145007 60 320 18.2 24.3 0.00 0.38 0.02 96 1005.6
20260508144507 60 329 18.2 25.2 0.00 0.38 0.02 96 1005.5
20260508143006 60 318 18.2 21.7 0.00 0.38 0.02 95 1005.8
20260508142507 60 323 20.0 26.9 0.00 0.38 0.02 95 1005.8
20260508141507 60 320 17.4 22.6 0.00 0.38 0.02 95 1006.0
20260508140508 60 324 21.7 28.7 0.00 0.38 0.02 95 1006.0
20260508134006 60 323 15.6 22.6 0.00 0.38 0.02 95 1006.1
20260508133508 59 317 15.6 19.1 0.00 0.38 0.02 96 1006.2
20260508132506 59 324 13.9 21.7 0.00 0.38 0.02 96 1006.1
20260508131506 59 322 15.6 21.7 0.00 0.38 0.02 97 1006.0
20260508131006 58 319 18.2 22.6 0.02 0.38 0.02 97 1006.1
20260508130508 58 320 13.9 20.9 0.02 0.38 0.02 98 1006.1
20260508130007 58 320 16.5 24.3 0.02 0.38 0.02 98 1006.2
20260508125008 58 318 13.9 19.1 0.04 0.38 0.02 98 1006.0
20260508123508 58 320 13.0 18.2 0.04 0.38 0.02 98 1006.2
20260508122506 58 317 13.0 17.4 0.04 0.37 0.02 98 1006.5
20260508122008 58 311 11.3 18.2 0.05 0.37 0.02 98 1006.5
20260508121508 58 310 13.0 19.1 0.06 0.37 0.02 98 1006.6
20260508121007 58 312 16.5 21.7 0.05 0.36 0.01 98 1006.7
20260508120506 58 307 18.2 26.9 0.07 0.36 0.00 98 1007.0
20260508115006 58 309 17.4 25.2 0.15 0.34 0.34 97 1006.7
20260508114508 59 308 20.9 27.8 0.17 0.34 0.34 97 1006.7
20260508112506 59 307 25.2 34.8 0.22 0.33 0.33 96 1007.1
20260508112006 60 309 24.3 31.3 0.22 0.33 0.33 97 1007.1
20260508111508 60 313 24.3 31.3 0.21 0.32 0.32 96 1007.1
20260508102505 63 11 12.2 18.2 0.01 0.11 0.11 97 1007.0
20260508101507 63 11 10.4 15.6 0.01 0.11 0.11 97 1007.1
20260508100007 63 11 12.2 20.0 0.02 0.11 0.11 97 1007.1
20260508095506 63 12 12.2 19.1 0.02 0.11 0.11 97 1007.0
20260508095006 63 12 13.0 18.2 0.02 0.11 0.11 97 1007.1
20260508094508 63 12 11.3 20.9 0.02 0.11 0.11 97 1007.5
20260508094006 63 12 10.4 20.0 0.02 0.11 0.11 97 1007.3
20260508093506 63 8 11.3 19.1 0.02 0.11 0.11 97 1007.2
20260508091507 63 7 13.0 20.0 0.02 0.10 0.10 97 1007.3
20260508091006 63 8 15.6 22.6 0.02 0.09 0.09 97 1007.2
20260508090506 63 13 14.8 25.2 0.02 0.09 0.09 96 1007.3
20260508083506 63 5 14.8 20.0 0.02 0.08 0.08 96 1007.5
20260508083007 63 357 13.9 20.0 0.02 0.08 0.08 96 1007.7
20260508082506 63 1 15.6 25.2 0.02 0.07 0.07 97 1007.8
20260508081006 63 337 13.9 25.2 0.02 0.07 0.07 97 1007.9
20260508080506 63 358 14.8 22.6 0.03 0.07 0.07 97 1007.8
20260508080008 63 0 11.3 21.7 0.03 0.07 0.07 97 1007.9
20260508074506 63 18 12.2 22.6 0.03 0.07 0.07 97 1007.5
20260508074007 63 2 12.2 26.1 0.02 0.06 0.06 97 1007.9
20260508072006 63 3 13.9 26.9 0.02 0.06 0.06 97 1007.9
20260508071505 64 4 14.8 22.6 0.02 0.06 0.06 97 1007.7
20260508070505 64 16 14.8 26.9 0.02 0.05 0.05 97 1007.6
20260508070006 64 12 13.9 21.7 0.01 0.04 0.04 97 1007.8
20260508064006 64 3 13.9 24.3 0.03 0.04 0.04 96 1008.3
20260508063508 64 8 15.6 24.3 0.03 0.04 0.04 96 1008.0
20260508061507 63 24 10.4 22.6 0.04 0.04 0.04 96 1008.0
20260508061008 63 16 10.4 25.2 0.04 0.04 0.04 96 1008.3
20260508055507 63 29 7.8 15.6 0.03 0.03 0.03 95 1008.1
20260508053006 64 37 7.8 20.9 0.01 0.01 0.01 93 1009.0
20260508052507 64 10 11.3 20.0 0.01 0.01 0.01 92 1009.6
20260508052006 64 14 10.4 20.9 0.01 0.01 0.01 91 1009.7
20260508051506 64 0 10.4 17.4 0.00 0.00 0.00 91 1009.7
20260508045007 65 15 11.3 19.1 0.00 0.00 0.00 88 1010.0
20260508044506 65 4 11.3 22.6 0.00 0.00 0.00 88 1010.0
20260508043505 65 3 10.4 13.9 0.00 0.00 0.00 88 1010.2
20260508043007 65 2 13.9 24.3 0.00 0.00 0.00 88 1010.3
20260508042006 65 16 14.8 22.6 0.00 0.00 0.00 87 1010.1
20260508041507 65 13 7.8 20.9 0.00 0.00 0.00 87 1010.1
20260508040506 65 18 11.3 17.4 0.00 0.00 0.00 87 1010.4
20260508035505 65 10 12.2 17.4 0.00 0.00 0.00 88 1010.9
20260508034507 65 0 11.3 17.4 0.00 0.00 0.00 88 1010.9